Location: Peebles
(55.6412°N, 3.1714°W)
Time: 18:10:04
(UTC+01:00)

ISS - Pass Details

Date: 01 October 2021
Orbit: 417 x 423 km, 51.6° (Epoch: 23 October)

Event Time Altitude Azimuth Distance (km) Brightness Sun altitude
Rises 20:49:43 0° 273° (W) 2,366 1.5 -17.8°
Reaches altitude 10° 20:52:27 10° 249° (WSW) 1,500 -0.3 -18.1°
Maximum altitude 20:54:27 15° 213° (SSW) 1,230 -1.3 -18.4°
Enters shadow 20:55:27 14° 192° (SSW) 1,301 -1.4 -18.5°
